Time,TemperatureF,DewpointF,PressureIn,WindDirection,WindDirectionDegrees,WindSpeedMPH,WindSpeedGustMPH,Humidity,HourlyPrecipIn,Conditions,Clouds,dailyrainin,SoftwareType,DateUTC
2013-02-15 00:04:00,34.7,28.0,30.09,West,271,9.0,-999.0,76,-99.99,,,0.00,weatherlink.com 1.10,2013-02-15 05:04:00,
2013-02-15 00:19:00,34.7,28.0,30.08,WNW,299,7.0,-999.0,77,-99.99,,,0.00,weatherlink.com 1.10,2013-02-15 05:19:00,
2013-02-15 00:34:00,34.9,28.0,30.08,West,270,7.0,-999.0,77,-99.99,,,0.00,weatherlink.com 1.10,2013-02-15 05:34:00,
2013-02-15 00:49:00,34.9,29.0,30.08,West,277,4.0,-999.0,78,-99.99,,,0.00,weatherlink.com 1.10,2013-02-15 05:49:00,
2013-02-15 01:04:00,35.0,29.0,30.08,WNW,300,3.0,-999.0,78,-99.99,,,0.00,weatherlink.com 1.10,2013-02-15 06:04:00,
2013-02-15 01:19:00,34.9,29.0,30.09,West,269,5.0,-999.0,79,-99.99,,,0.00,weatherlink.com 1.10,2013-02-15 06:19:00,
2013-02-15 01:34:00,34.9,29.0,30.11,WNW,302,6.0,-999.0,79,-99.99,,,0.00,weatherlink.com 1.10,2013-02-15 06:34:00,
2013-02-15 01:49:00,35.2,29.0,30.10,NW,304,7.0,-999.0,79,-99.99,,,0.00,weatherlink.com 1.10,2013-02-15 06:49:00,
2013-02-15 02:04:00,35.2,29.0,30.10,WNW,285,6.0,-999.0,79,-99.99,,,0.00,weatherlink.com 1.10,2013-02-15 07:04:00,
2013-02-15 02:19:00,35.0,29.0,30.09,WSW,245,5.0,-999.0,80,-99.99,,,0.00,weatherlink.com 1.10,2013-02-15 07:19:00,
2013-02-15 02:34:00,35.2,29.0,30.08,West,275,8.0,-999.0,79,-99.99,,,0.00,weatherlink.com 1.10,2013-02-15 07:34:00,
2013-02-15 02:49:00,35.3,29.0,30.08,West,272,4.0,-999.0,79,-99.99,,,0.00,weatherlink.com 1.10,2013-02-15 07:49:00,
2013-02-15 03:04:00,35.3,29.0,30.08,West,272,2.0,-999.0,79,-99.99,,,0.00,weatherlink.com 1.10,2013-02-15 08:04:00,
2013-02-15 03:19:00,35.5,30.0,30.07,WNW,296,15.0,-999.0,79,-99.99,,,0.00,weatherlink.com 1.10,2013-02-15 08:19:00,
2013-02-15 03:34:00,35.5,30.0,30.07,WSW,258,8.0,-999.0,79,-99.99,,,0.00,weatherlink.com 1.10,2013-02-15 08:34:00,
2013-02-15 03:49:00,35.6,30.0,30.06,WNW,295,10.0,-999.0,79,-99.99,,,0.00,weatherlink.com 1.10,2013-02-15 08:49:00,
2013-02-15 04:04:00,35.3,29.0,30.06,WNW,294,6.0,-999.0,79,-99.99,,,0.00,weatherlink.com 1.10,2013-02-15 09:04:00,
2013-02-15 04:19:00,35.3,29.0,30.06,West,273,7.0,-999.0,79,-99.99,,,0.00,weatherlink.com 1.10,2013-02-15 09:19:00,
2013-02-15 04:34:00,35.5,30.0,30.07,WNW,295,10.0,-999.0,79,-99.99,,,0.00,weatherlink.com 1.10,2013-02-15 09:34:00,
2013-02-15 04:49:00,35.9,30.0,30.07,WNW,284,10.0,-999.0,78,-99.99,,,0.00,weatherlink.com 1.10,2013-02-15 09:49:00,
2013-02-15 05:04:00,35.8,30.0,30.08,West,279,4.0,-999.0,78,-99.99,,,0.00,weatherlink.com 1.10,2013-02-15 10:04:00,
2013-02-15 05:19:00,35.8,29.0,30.08,NW,309,11.0,-999.0,77,-99.99,,,0.00,weatherlink.com 1.10,2013-02-15 10:19:00,
2013-02-15 05:34:00,35.8,29.0,30.09,NW,305,4.0,-999.0,75,-99.99,,,0.00,weatherlink.com 1.10,2013-02-15 10:34:00,
2013-02-15 05:49:00,35.6,29.0,30.09,West,279,12.0,-999.0,76,-99.99,,,0.00,weatherlink.com 1.10,2013-02-15 10:49:00,
2013-02-15 06:04:00,35.6,29.0,30.09,WNW,293,7.0,-999.0,77,-99.99,,,0.00,weatherlink.com 1.10,2013-02-15 11:04:00,
2013-02-15 06:19:00,35.6,29.0,30.09,West,274,7.0,-999.0,77,-99.99,,,0.00,weatherlink.com 1.10,2013-02-15 11:19:00,
2013-02-15 06:34:00,35.5,29.0,30.11,West,275,4.0,-999.0,78,-99.99,,,0.00,weatherlink.com 1.10,2013-02-15 11:34:00,
2013-02-15 06:49:00,35.6,29.0,30.11,West,275,2.0,-999.0,78,-99.99,,,0.00,weatherlink.com 1.10,2013-02-15 11:49:00,
2013-02-15 07:04:00,35.2,29.0,30.12,West,266,1.0,-999.0,78,-99.99,,,0.00,weatherlink.com 1.10,2013-02-15 12:04:00,
2013-02-15 07:19:00,35.5,29.0,30.12,SW,234,1.0,-999.0,77,-99.99,,,0.00,weatherlink.com 1.10,2013-02-15 12:19:00,
2013-02-15 07:34:00,35.8,29.0,30.14,West,265,2.0,-999.0,77,-99.99,,,0.00,weatherlink.com 1.10,2013-02-15 12:34:00,
2013-02-15 07:49:00,36.2,29.0,30.14,SW,231,0.0,-999.0,75,-99.99,,,0.00,weatherlink.com 1.10,2013-02-15 12:49:00,
2013-02-15 08:04:00,36.2,29.0,30.15,SW,231,0.0,-999.0,76,-99.99,,,0.00,weatherlink.com 1.10,2013-02-15 13:04:00,
2013-02-15 08:19:00,36.6,29.0,30.15,SSW,199,0.0,-999.0,74,-99.99,,,0.00,weatherlink.com 1.10,2013-02-15 13:19:00,
2013-02-15 08:34:00,37.3,29.0,30.14,ESE,103,0.0,-999.0,72,-99.99,,,0.00,weatherlink.com 1.10,2013-02-15 13:34:00,
2013-02-15 08:49:00,37.8,30.0,30.15,South,190,1.0,-999.0,72,-99.99,,,0.00,weatherlink.com 1.10,2013-02-15 13:49:00,
2013-02-15 09:04:00,38.2,30.0,30.15,SE,142,0.0,-999.0,71,-99.99,,,0.00,weatherlink.com 1.10,2013-02-15 14:04:00,
2013-02-15 09:19:00,39.1,30.0,30.14,SE,144,2.0,-999.0,71,-99.99,,,0.00,weatherlink.com 1.10,2013-02-15 14:19:00,
2013-02-15 09:35:00,39.9,30.0,30.14,ESE,119,0.0,-999.0,69,-99.99,,,0.00,weatherlink.com 1.10,2013-02-15 14:35:00,
2013-02-15 09:50:00,40.1,31.0,30.14,ESE,110,0.0,-999.0,69,-99.99,,,0.00,weatherlink.com 1.10,2013-02-15 14:50:00,
2013-02-15 10:05:00,40.2,31.0,30.14,ESE,106,0.0,-999.0,69,-99.99,,,0.00,weatherlink.com 1.10,2013-02-15 15:05:00,
2013-02-15 10:20:00,40.8,31.0,30.13,ENE,68,1.0,-999.0,68,-99.99,,,0.00,weatherlink.com 1.10,2013-02-15 15:20:00,
2013-02-15 10:35:00,42.5,32.0,30.12,ESE,123,0.0,-999.0,66,-99.99,,,0.00,weatherlink.com 1.10,2013-02-15 15:35:00,
2013-02-15 10:50:00,44.1,32.0,30.12,South,183,0.0,-999.0,62,-99.99,,,0.00,weatherlink.com 1.10,2013-02-15 15:50:00,
2013-02-15 11:05:00,45.5,31.0,30.11,SSW,209,0.0,-999.0,57,-99.99,,,0.00,weatherlink.com 1.10,2013-02-15 16:05:00,
2013-02-15 11:20:00,46.2,31.0,30.10,East,101,1.0,-999.0,56,-99.99,,,0.00,weatherlink.com 1.10,2013-02-15 16:20:00,
2013-02-15 11:35:00,47.3,31.0,30.09,ENE,69,0.0,-999.0,53,-99.99,,,0.00,weatherlink.com 1.10,2013-02-15 16:35:00,
2013-02-15 11:50:00,46.1,30.0,30.09,East,92,3.0,-999.0,53,-99.99,,,0.00,weatherlink.com 1.10,2013-02-15 16:50:00,
2013-02-15 12:05:00,46.4,29.0,30.09,East,98,1.0,-999.0,52,-99.99,,,0.00,weatherlink.com 1.10,2013-02-15 17:05:00,
2013-02-15 12:20:00,45.8,29.0,30.08,ESE,123,0.0,-999.0,52,-99.99,,,0.00,weatherlink.com 1.10,2013-02-15 17:20:00,
2013-02-15 12:35:00,44.8,29.0,30.08,SSE,155,0.0,-999.0,54,-99.99,,,0.00,weatherlink.com 1.10,2013-02-15 17:35:00,
2013-02-15 12:50:00,44.5,29.0,30.07,SSE,153,0.0,-999.0,56,-99.99,,,0.00,weatherlink.com 1.10,2013-02-15 17:50:00,
2013-02-15 13:05:00,45.1,29.0,30.06,SSE,152,0.0,-999.0,54,-99.99,,,0.00,weatherlink.com 1.10,2013-02-15 18:05:00,
2013-02-15 13:20:00,45.2,29.0,30.05,NNW,346,0.0,-999.0,54,-99.99,,,0.00,weatherlink.com 1.10,2013-02-15 18:20:00,
2013-02-15 13:35:00,45.2,29.0,30.05,ESE,103,1.0,-999.0,54,-99.99,,,0.00,weatherlink.com 1.10,2013-02-15 18:35:00,
2013-02-15 13:50:00,46.4,29.0,30.04,South,178,0.0,-999.0,52,-99.99,,,0.00,weatherlink.com 1.10,2013-02-15 18:50:00,
2013-02-15 14:05:00,46.5,29.0,30.04,ESE,118,1.0,-999.0,51,-99.99,,,0.00,weatherlink.com 1.10,2013-02-15 19:05:00,
2013-02-15 14:20:00,46.1,28.0,30.03,East,96,2.0,-999.0,50,-99.99,,,0.00,weatherlink.com 1.10,2013-02-15 19:20:00,
2013-02-15 14:35:00,45.8,29.0,30.01,South,169,0.0,-999.0,52,-99.99,,,0.00,weatherlink.com 1.10,2013-02-15 19:35:00,
2013-02-15 14:50:00,45.2,28.0,30.01,South,180,0.0,-999.0,52,-99.99,,,0.00,weatherlink.com 1.10,2013-02-15 19:50:00,
2013-02-15 15:05:00,45.2,30.0,30.02,SE,132,0.0,-999.0,55,-99.99,,,0.00,weatherlink.com 1.10,2013-02-15 20:05:00,
2013-02-15 15:20:00,45.2,28.0,30.00,SE,132,2.0,-999.0,52,-99.99,,,0.00,weatherlink.com 1.10,2013-02-15 20:20:00,
2013-02-15 15:35:00,44.8,27.0,30.00,WSW,258,1.0,-999.0,51,-99.99,,,0.00,weatherlink.com 1.10,2013-02-15 20:35:00,
2013-02-15 16:05:00,44.1,28.0,30.01,ESE,106,3.0,-999.0,53,-99.99,,,0.00,weatherlink.com 1.10,2013-02-15 21:05:00,
2013-02-15 16:20:00,43.6,28.0,30.01,West,262,0.0,-999.0,55,-99.99,,,0.00,weatherlink.com 1.10,2013-02-15 21:20:00,
2013-02-15 16:35:00,43.5,29.0,30.00,SW,228,1.0,-999.0,56,-99.99,,,0.00,weatherlink.com 1.10,2013-02-15 21:35:00,
2013-02-15 16:50:00,43.3,30.0,30.00,SSE,164,0.0,-999.0,59,-99.99,,,0.00,weatherlink.com 1.10,2013-02-15 21:50:00,
2013-02-15 17:05:00,42.6,30.0,30.01,SSE,152,0.0,-999.0,62,-99.99,,,0.00,weatherlink.com 1.10,2013-02-15 22:05:00,
2013-02-15 17:20:00,42.8,30.0,30.01,West,280,0.0,-999.0,62,-99.99,,,0.00,weatherlink.com 1.10,2013-02-15 22:20:00,
2013-02-15 17:35:00,42.2,31.0,30.01,SW,216,0.0,-999.0,64,-99.99,,,0.00,weatherlink.com 1.10,2013-02-15 22:35:00,
2013-02-15 17:50:00,41.6,31.0,30.01,WNW,295,1.0,-999.0,66,-99.99,,,0.00,weatherlink.com 1.10,2013-02-15 22:50:00,
2013-02-15 18:05:00,41.1,32.0,30.02,WNW,284,4.0,-999.0,71,-99.99,,,0.00,weatherlink.com 1.10,2013-02-15 23:05:00,
2013-02-15 18:20:00,40.2,33.0,30.02,NW,306,6.0,-999.0,75,-99.99,,,0.00,weatherlink.com 1.10,2013-02-15 23:20:00,
2013-02-15 18:35:00,38.8,33.0,30.04,NW,306,10.0,-999.0,80,-99.99,,,0.00,weatherlink.com 1.10,2013-02-15 23:35:00,
2013-02-15 18:50:00,37.2,33.0,30.06,WNW,282,5.0,-999.0,85,-99.99,,,0.00,weatherlink.com 1.10,2013-02-15 23:50:00,
2013-02-15 19:05:00,36.0,33.0,30.06,WNW,296,6.0,-999.0,88,-99.99,,,0.00,weatherlink.com 1.10,2013-02-16 00:05:00,
2013-02-15 19:20:00,35.3,32.0,30.08,WNW,291,4.0,-999.0,88,-99.99,,,0.00,weatherlink.com 1.10,2013-02-16 00:20:00,
2013-02-15 19:35:00,35.0,32.0,30.08,NNW,327,4.0,-999.0,90,-99.99,,,0.00,weatherlink.com 1.10,2013-02-16 00:35:00,
2013-02-15 19:50:00,33.8,31.0,30.08,WNW,290,5.0,-999.0,90,-99.99,,,0.00,weatherlink.com 1.10,2013-02-16 00:50:00,
2013-02-15 20:05:00,32.9,31.0,30.09,NW,315,12.0,-999.0,91,-99.99,,,0.00,weatherlink.com 1.10,2013-02-16 01:05:00,
2013-02-15 20:20:00,32.5,31.0,30.09,WNW,300,6.0,-999.0,92,-99.99,,,0.00,weatherlink.com 1.10,2013-02-16 01:20:00,
2013-02-15 20:35:00,31.8,30.0,30.08,NNW,340,10.0,-999.0,92,-99.99,,,0.00,weatherlink.com 1.10,2013-02-16 01:35:00,
2013-02-15 20:50:00,31.3,29.0,30.07,NW,323,12.0,-999.0,92,-99.99,,,0.00,weatherlink.com 1.10,2013-02-16 01:50:00,
2013-02-15 21:05:00,31.0,29.0,30.07,NW,311,7.0,-999.0,91,-99.99,,,0.00,weatherlink.com 1.10,2013-02-16 02:05:00,
2013-02-15 21:20:00,30.7,28.0,30.07,WNW,292,2.0,-999.0,91,-99.99,,,0.00,weatherlink.com 1.10,2013-02-16 02:20:00,
2013-02-15 21:35:00,30.4,28.0,30.07,WNW,302,2.0,-999.0,92,-99.99,,,0.00,weatherlink.com 1.10,2013-02-16 02:35:00,
2013-02-15 21:50:00,30.4,28.0,30.07,NW,325,7.0,-999.0,92,-99.99,,,0.00,weatherlink.com 1.10,2013-02-16 02:50:00,
2013-02-15 22:06:00,30.1,27.0,30.07,NW,319,13.0,-999.0,89,-99.99,,,0.00,weatherlink.com 1.10,2013-02-16 03:06:00,
2013-02-15 22:21:00,29.8,26.0,30.07,NW,306,6.0,-999.0,87,-99.99,,,0.00,weatherlink.com 1.10,2013-02-16 03:21:00,
2013-02-15 22:36:00,29.5,26.0,30.05,NW,307,10.0,-999.0,87,-99.99,,,0.00,weatherlink.com 1.10,2013-02-16 03:36:00,
2013-02-15 22:51:00,29.4,26.0,30.05,NNW,331,7.0,-999.0,88,-99.99,,,0.00,weatherlink.com 1.10,2013-02-16 03:51:00,
2013-02-15 23:06:00,29.3,26.0,30.04,NW,304,10.0,-999.0,88,-99.99,,,0.00,weatherlink.com 1.10,2013-02-16 04:06:00,
2013-02-15 23:21:00,29.3,27.0,30.04,NW,324,10.0,-999.0,89,-99.99,,,0.00,weatherlink.com 1.10,2013-02-16 04:21:00,
2013-02-15 23:36:00,28.7,26.0,30.03,NW,323,9.0,-999.0,89,-99.99,,,0.00,weatherlink.com 1.10,2013-02-16 04:36:00,
2013-02-15 23:51:00,28.1,25.0,30.02,NNW,340,3.0,-999.0,89,-99.99,,,0.00,weatherlink.com 1.10,2013-02-16 04:51:00,